[[{"header":{"parameterUnit":"m.s-1","parameterCategory":1,"la1":30.2991,"la2":30.254,"lo1":-89.0895,"lo2":-89.0444,"dy":0.0017,"dx":0.0017,"nx":28,"ny":28,"refTime":"2024-07-31T03:00:00:Z","depth":0,"parameterNumber":2,"parameterNumberName":"U-component_of_WINDS"},"data":[0,0,0,0,0,0,0,0,0,0,0,0,0,0,0,0,0,0,0,0,0,0,0,0,0,0,0,0,0,0,0,0,0,0,0,0,0,0,0,0,0,0,0,0,0,0,0,0,0,0,0,0,0,0,0,0,0,0,1.8381,1.8382,0,1.8455,1.8456,1.8457,1.8446,1.8445,1.8444,1.8442,1.8518,1.8521,1.8525,0,0,0,0,0,0,0,0,0,0,0,0,0,1.8229,1.8232,1.8381,1.8382,1.8383,1.8455,1.8456,1.8457,1.8446,1.8445,1.8443,1.8442,1.8517,1.8521,1.8525,0,0,0,0,0,0,0,0,0,0,0,0,0,1.8298,1.8233,1.8381,1.8386,1.8387,1.8455,1.8456,1.8457,1.8447,1.8445,1.8443,1.8441,1.8516,1.8521,1.8525,1.8592,0,0,1.854,1.8542,0,0,0,0,0,0,0,0,1.8295,1.8304,1.8385,1.8386,1.8387,1.8439,1.843,1.8503,1.8447,1.8424,1.8442,1.844,1.8494,1.85,1.8518,1.8596,1.8599,1.854,1.8543,1.8545,1.8547,0,0,0,0,0,0,0,1.829,1.8301,1.841,1.8386,1.8388,1.8385,1.8392,1.8444,1.8468,1.8426,1.8425,1.8434,1.8494,1.8514,1.852,1.86,1.854,1.8545,1.8548,1.8549,1.8735,1.8737,0,0,0,0,0,0,1.8284,1.8297,1.8408,1.8413,1.8335,1.8389,1.8398,1.8425,1.8468,1.8473,1.8436,1.8433,1.8506,1.8514,1.8523,1.8602,1.8545,1.855,1.8553,1.8733,1.8735,1.8737,0,0,0,0,0,0,1.828,1.8294,1.8405,1.8355,1.8369,1.8393,1.8424,1.8427,1.8447,1.8475,1.848,1.8451,1.8505,1.8516,1.8575,1.8604,1.8552,1.8556,1.873,1.8733,1.8736,1.8762,0,0,0,0,0,0,1.8276,1.8293,1.8318,1.8355,1.8371,1.8456,1.8426,1.843,1.8455,1.8452,1.8491,1.8496,1.8505,1.8568,1.8579,1.861,1.856,1.8728,1.8732,1.8735,1.8759,1.8766,1.8772,0,0,0,0,0,1.8271,1.8323,1.832,1.8333,1.8404,1.8458,1.8467,1.8476,1.8457,1.8483,1.8501,1.8494,1.86,1.8574,1.8587,1.862,1.8726,1.8731,1.8735,1.8756,1.8765,1.8772,0,0,0,0,0,0,1.8289,1.8328,1.8325,1.8391,1.8421,1.8456,1.8489,1.8486,1.8522,1.8518,1.8528,1.8537,1.8596,1.8614,1.8584,1.8686,1.866,1.8668,1.8671,1.868,1.8686,1.868,1.8564,0,0,0,0,0,1.8301,1.8342,1.8374,1.8429,1.8444,1.8464,1.8488,1.8492,1.8524,1.8537,1.856,1.859,1.863,1.8656,1.8695,1.8762,1.8769,1.8791,1.8797,1.8803,1.8808,1.8843,1.8853,1.8753,1.8753,1.8752,0,0,1.8326,1.8352,1.8378,1.8433,1.8457,1.8498,1.8475,1.852,1.855,1.8544,1.86,1.8618,1.8653,1.8716,1.8744,1.8732,1.8838,1.8809,1.8813,1.8816,1.8849,1.8858,1.8867,1.8756,1.8755,1.8755,0,0,1.8392,1.8417,1.8464,1.8489,1.8525,1.8538,1.855,1.8585,1.8596,1.8653,1.8648,1.8685,1.8754,1.8778,1.88,1.8874,1.8868,1.8887,1.892,1.8954,1.8962,1.8969,1.8993,1.9002,1.8893,1.8893,1.8893,0,1.8418,1.848,1.849,1.8535,1.8559,1.8555,1.8602,1.8626,1.8673,1.8689,1.8675,1.8761,1.8784,1.8852,1.887,1.8888,1.89,1.8882,1.896,1.8967,1.8974,1.8997,1.9007,1.8895,1.8894,1.8894,1.8894,0,1.8509,1.8552,1.8587,1.8632,1.866,1.8706,1.8722,1.875,1.8752,1.8765,1.8822,1.8851,1.8894,1.8911,1.8913,1.8978,1.8969,1.8958,1.8932,1.8985,1.9007,1.9016,1.8897,1.8897,1.8896,1.8896,0,0,1.8588,1.8638,1.865,1.8669,1.8709,1.8742,1.8788,1.883,1.8853,1.8886,1.8923,1.8981,1.897,1.8995,1.9,1.903,1.9085,1.9015,1.9016,1.9025,1.9155,1.9162,1.9173,1.9082,1.9084,1.9085,1.9152,0,1.8656,1.8737,1.8746,1.8818,1.8857,1.8854,1.8893,1.8921,1.8936,1.8971,1.8986,1.9026,1.901,1.9025,1.9054,1.9072,1.9111,1.9067,1.9115,1.9117,1.9105,1.9185,1.9192,1.9254,1.9161,1.9162,1.9163,0,1.8746,1.878,1.8856,1.8889,1.8906,1.8941,1.8979,1.9013,1.9045,1.9053,1.908,1.9082,1.9128,1.9101,1.9164,1.9135,1.9155,1.9167,1.9169,1.9172,1.9142,1.9188,1.9274,1.9282,1.9177,1.9176,1.9175,0,1.8793,1.8859,1.8912,1.8929,1.897,1.8994,1.9012,1.9042,1.9066,1.91,1.9116,1.9155,1.9176,1.9205,1.9217,1.9197,1.9279,1.9254,1.9285,1.9285,1.9302,1.93,1.939,1.9318,1.9318,1.9318,1.9318,0,1.8867,1.8912,1.8933,1.8966,1.9017,1.9027,1.9077,1.9094,1.912,1.9155,1.9156,1.9188,1.9202,1.9237,1.9247,1.9296,1.9306,1.9313,1.9315,1.9312,1.9311,1.9324,1.932,1.932,1.932,1.9319,1.9319,0,1.8927,1.8944,1.9001,1.9034,1.9044,1.908,1.9108,1.9139,1.9153,1.9197,1.9208,1.923,1.927,1.9285,1.9335,1.9342,1.9398,1.9398,1.9387,1.9387,1.9418,1.9414,1.9518,1.9531,1.9452,1.9453,1.9454,0,1.8972,1.9007,1.9045,1.9068,1.9087,1.9125,1.9149,1.9161,1.9186,1.9225,1.925,1.9291,1.9324,1.9389,1.9409,1.9447,1.9446,1.9479,1.9451,1.9447,1.9444,1.944,1.9443,1.9484,1.9485,1.9486,1.9486,0,1.905,1.9056,1.9091,1.9129,1.9158,1.9189,1.9219,1.9238,1.9254,1.9282,1.9324,1.9349,1.94,1.9439,1.9478,1.9496,1.9493,1.9495,1.9504,1.9501,1.9492,1.9495,1.9399,1.9492,1.9492,1.9491,1.9491,1.9491,1.9102,1.9133,1.9163,1.9202,1.9226,1.9253,1.9283,1.9301,1.9336,1.9378,1.9383,1.9427,1.9457,1.9508,1.9528,1.9562,1.9552,1.9566,1.9569,1.9572,1.9573,1.9488,1.9569,1.9569,1.9569,1.9569,1.9569,0,1.9178,1.9197,1.9233,1.9274,1.9305,1.9301,1.9333,1.9358,1.9397,1.9425,1.9457,1.9504,1.9543,1.9565,1.9604,1.9626,1.9626,1.9636,1.9633,1.9637,1.958,1.9567,1.9635,1.9635,1.9635,1.9635,1.9635,1.9635,1.922,1.9271,1.928,1.9342,1.9361,1.9404,1.9423,1.9448,1.947,1.9522,1.9554,1.9569,1.9594,1.9634,1.9669,1.9674,1.9688,1.9698,1.9702,1.9648,1.9641,1.9635,1.9623,1.9701,1.9701,1.9756,1.9757,1.9757]},{"header":{"parameterUnit":"m.s-1","parameterCategory":1,"la1":30.2991,"la2":30.254,"lo1":-89.0895,"lo2":-89.0444,"dy":0.0017,"dx":0.0017,"nx":28,"ny":28,"refTime":"2024-07-31T03:00:00:Z","depth":0,"parameterNumber":3,"parameterNumberName":"V-component_of_WINDS"},"data":[0,0,0,0,0,0,0,0,0,0,0,0,0,0,0,0,0,0,0,0,0,0,0,0,0,0,0,0,0,0,0,0,0,0,0,0,0,0,0,0,0,0,0,0,0,0,0,0,0,0,0,0,0,0,0,0,0,0,4.4926,4.4925,0,4.4891,4.4891,4.489,4.4879,4.488,4.488,4.488,4.4839,4.4838,4.4836,0,0,0,0,0,0,0,0,0,0,0,0,0,4.4977,4.4977,4.4926,4.4925,4.4925,4.4891,4.4891,4.489,4.4879,4.488,4.488,4.488,4.4839,4.4838,4.4836,0,0,0,0,0,0,0,0,0,0,0,0,0,4.495,4.4976,4.4926,4.4916,4.4915,4.4891,4.4891,4.489,4.4879,4.488,4.488,4.488,4.484,4.4838,4.4836,4.4819,0,0,4.483,4.4829,0,0,0,0,0,0,0,0,4.4951,4.4948,4.4918,4.4916,4.4915,4.489,4.4894,4.4866,4.4879,4.4893,4.488,4.488,4.4855,4.4852,4.4845,4.4817,4.4815,4.483,4.4829,4.4828,4.4827,0,0,0,0,0,0,0,4.4953,4.4949,4.4912,4.4917,4.4916,4.4911,4.4907,4.4888,4.4872,4.4891,4.4891,4.4887,4.4854,4.4847,4.4844,4.4814,4.483,4.4828,4.4827,4.4826,4.4768,4.4767,0,0,0,0,0,0,4.4958,4.4951,4.4913,4.4911,4.4934,4.491,4.4906,4.4898,4.4873,4.4869,4.4887,4.4887,4.485,4.4846,4.4842,4.4819,4.4828,4.4826,4.4825,4.4768,4.4768,4.4767,0,0,0,0,0,0,4.4959,4.4955,4.4914,4.4931,4.4925,4.4909,4.49,4.4897,4.4889,4.4869,4.4866,4.4882,4.485,4.4845,4.4824,4.4817,4.4825,4.4824,4.4769,4.4768,4.4767,4.4773,0,0,0,0,0,0,4.4961,4.4955,4.495,4.4931,4.4925,4.4899,4.4899,4.4896,4.4886,4.4886,4.4864,4.486,4.485,4.4827,4.4823,4.4815,4.4822,4.4769,4.4768,4.4768,4.4774,4.4773,4.4772,0,0,0,0,0,4.4962,4.4952,4.495,4.4945,4.4918,4.4899,4.4895,4.4885,4.4886,4.4879,4.4866,4.4861,4.4819,4.4825,4.482,4.4812,4.477,4.4769,4.4768,4.4774,4.4773,4.4772,0,0,0,0,0,0,4.4969,4.4949,4.4946,4.493,4.4916,4.4897,4.4889,4.4884,4.4868,4.4868,4.4854,4.4849,4.4829,4.4818,4.4826,4.4792,4.4794,4.4792,4.48,4.4799,4.4799,4.4801,4.482,0,0,0,0,0,4.4969,4.4957,4.494,4.4926,4.492,4.4906,4.4897,4.489,4.4875,4.4868,4.4854,4.4837,4.482,4.4809,4.4793,4.4772,4.4766,4.4763,4.4763,4.4762,4.476,4.4747,4.4745,4.4764,4.4764,4.4764,0,0,4.4967,4.4955,4.4948,4.4927,4.4916,4.4902,4.4901,4.4886,4.4875,4.4865,4.4846,4.4834,4.4815,4.4794,4.4784,4.4784,4.4754,4.4761,4.4761,4.4759,4.4745,4.4744,4.4742,4.4764,4.4764,4.4764,0,0,4.4958,4.4949,4.4936,4.4925,4.4908,4.4899,4.4896,4.4877,4.487,4.485,4.4842,4.4827,4.4799,4.4785,4.4774,4.4758,4.4752,4.4753,4.4749,4.4736,4.4735,4.4733,4.4726,4.4724,4.4751,4.4751,4.4751,0,4.4958,4.4939,4.493,4.4916,4.4906,4.4898,4.4884,4.4873,4.4851,4.4843,4.4844,4.4808,4.4794,4.4769,4.4765,4.4757,4.4751,4.4755,4.4736,4.4735,4.4733,4.4726,4.4723,4.4752,4.4752,4.4752,4.4752,0,4.4939,4.4926,4.4917,4.4898,4.4887,4.4873,4.486,4.485,4.4843,4.4833,4.4811,4.4795,4.4774,4.4768,4.4761,4.4741,4.4741,4.4739,4.474,4.4732,4.4725,4.4722,4.4752,4.4752,4.4752,4.4752,0,0,4.4933,4.4909,4.4906,4.4897,4.4877,4.4866,4.485,4.4832,4.4822,4.4807,4.4792,4.4768,4.4766,4.4753,4.4744,4.4733,4.472,4.4732,4.4731,4.4729,4.4695,4.4695,4.4693,4.4716,4.4715,4.4715,4.4696,0,4.4921,4.4896,4.4886,4.4864,4.4851,4.4842,4.4829,4.4814,4.4803,4.4788,4.4776,4.4758,4.4758,4.475,4.4739,4.4724,4.4712,4.4725,4.47,4.4699,4.4704,4.4689,4.4691,4.4673,4.4693,4.4693,4.4692,0,4.4903,4.4889,4.4867,4.4848,4.4842,4.483,4.4811,4.4798,4.478,4.4773,4.4759,4.4751,4.4732,4.4735,4.4707,4.4716,4.4704,4.4696,4.4695,4.4691,4.4695,4.4684,4.4668,4.4665,4.4688,4.4689,4.4689,0,4.49,4.4875,4.4858,4.485,4.4828,4.482,4.481,4.4793,4.4782,4.4765,4.4757,4.4737,4.4726,4.4709,4.4695,4.4699,4.4668,4.467,4.4659,4.466,4.4653,4.4653,4.4633,4.4647,4.4647,4.4647,4.4648,0,4.4886,4.4872,4.4856,4.4846,4.4829,4.4817,4.48,4.4789,4.4774,4.4759,4.475,4.4736,4.4719,4.4702,4.469,4.4668,4.4663,4.4655,4.4652,4.4655,4.4656,4.4647,4.4647,4.4647,4.4647,4.4647,4.4647,0,4.488,4.4869,4.4849,4.483,4.4825,4.4813,4.4796,4.4784,4.4773,4.4754,4.4749,4.4731,4.471,4.4695,4.4667,4.4659,4.4635,4.4632,4.4642,4.464,4.463,4.463,4.4602,4.4597,4.4616,4.4616,4.4616,0,4.4872,4.4861,4.4841,4.4832,4.4822,4.4807,4.4796,4.4783,4.4771,4.475,4.474,4.4719,4.4701,4.4668,4.4651,4.4629,4.4625,4.4617,4.4621,4.4625,4.4623,4.4623,4.4621,4.4616,4.4615,4.4615,4.4615,0,4.4858,4.4853,4.4838,4.4821,4.4809,4.4794,4.4779,4.4771,4.4756,4.4742,4.4722,4.4709,4.4681,4.4659,4.4636,4.4623,4.4615,4.4614,4.461,4.4613,4.4618,4.4614,4.4638,4.4614,4.4615,4.4615,4.4615,4.4615,4.4849,4.4839,4.4823,4.4807,4.4795,4.4781,4.4768,4.4756,4.474,4.4718,4.471,4.4689,4.4669,4.4637,4.4624,4.4605,4.4604,4.4599,4.4598,4.4596,4.4596,4.4622,4.46,4.46,4.46,4.46,4.46,0,4.4834,4.4824,4.4809,4.4789,4.4775,4.4772,4.4755,4.4743,4.4725,4.4708,4.4691,4.4667,4.4645,4.4626,4.4603,4.4592,4.4587,4.4586,4.4586,4.4582,4.4598,4.4603,4.4589,4.4589,4.4589,4.459,4.459,4.459,4.4825,4.4807,4.4799,4.4774,4.4763,4.4743,4.4734,4.472,4.4706,4.468,4.4663,4.4651,4.4633,4.4608,4.4587,4.4582,4.4573,4.4572,4.4566,4.458,4.4582,4.4583,4.4588,4.4571,4.4571,4.4552,4.4551,4.4551]}]]